Weather History for Bloomington, IL

Change the Weather History Date:

Saturday, September 7, 2013

  Actual Average Record
Temperature  
Mean Temperature 75 °F -  
Max Temperature 88 °F 81 °F 110 °F (2014)
Min Temperature 64 °F 58 °F 37 °F (2000)
Cooling Degree Days 10    
Growing Degree Days 25 (Base 50)    
Moisture  
Dew Point 63 °F    
Average Humidity 69    
Maximum Humidity 93    
Minimum Humidity 40    
Precipitation  
Precipitation 0.00 in - - ()
Sea Level Pressure  
Sea Level Pressure 29.97 in    
Wind  
Wind Speed 9 mph (SSW)    
Max Wind Speed 17 mph    
Max Gust Speed -    
Visibility 10 miles    
Events Rain    
Averages and records for this station are not official NWS values.
T = Trace of Precipitation, MM = Missing Value Source: NWS Daily Summary

Daily Weather History Graph

Daily Weather History Graph

Search for Another Location

Airport:

Trip Planner

Search our weather history database for the weather conditions in past years. The results will help you decide how hot, cold, wet, or windy it might be!

Date:

Astronomy

Sep. 07, 2013 Rise Set
Actual Time 6:28 AM CDT 7:17 PM CDT
Civil Twilight 6:01 AM CDT 7:45 PM CDT
Nautical Twilight 5:28 AM CDT 8:17 PM CDT
Astronomical Twilight 4:54 AM CDT 8:51 PM CDT
Moon 8:43 AM CDT (9/7) 8:15 PM CDT (9/7)
Length of Visible Light 13h 43m
Length of Day
12h 48m
Waxing Crescent, 5% of the Moon is Illuminated
Sep 7
Waxing Crescent
Sep 12
First Quarter
Sep 19
Full
Sep 26
Last Quarter
Oct 4
New

Hourly Weather History & Observations

Time (CDT) Temp. Heat Index Dew Point Humidity Pressure Visibility Wind Dir Wind Speed Gust Speed Precip Events Conditions
12:56 AM 66.9 °F - 61.9 °F 84% 30.03 in 10.0 mi SSW 5.8 mph - N/A   Clear
1:56 AM 64.9 °F - 61.9 °F 90% 30.02 in 10.0 mi SSW 6.9 mph - N/A   Clear
2:56 AM 64.9 °F - 61.9 °F 90% 30.01 in 9.0 mi SSW 8.1 mph - N/A   Clear
3:56 AM 64.9 °F - 61.9 °F 90% 30.01 in 10.0 mi SSW 9.2 mph - N/A   Clear
4:56 AM 65.8 °F - 63.0 °F 90% 30.01 in 10.0 mi SW 10.4 mph - N/A   Clear
5:56 AM 64.9 °F - 63.0 °F 93% 30.01 in 10.0 mi SW 9.2 mph - N/A   Clear
6:56 AM 65.8 °F - 63.0 °F 90% 30.03 in 10.0 mi SW 9.2 mph - N/A   Clear
7:56 AM 68.0 °F - 63.0 °F 84% 30.04 in 10.0 mi SW 11.5 mph - N/A   Clear
8:56 AM 73.9 °F - 63.9 °F 71% 30.04 in 10.0 mi WSW 10.4 mph - N/A   Clear
9:56 AM 79.0 °F - 63.9 °F 60% 30.04 in 10.0 mi SW 10.4 mph - N/A   Clear
10:56 AM 82.9 °F 84.2 °F 63.9 °F 52% 29.99 in 10.0 mi South 15.0 mph - N/A   Partly Cloudy
11:56 AM 84.9 °F 85.9 °F 63.0 °F 48% 29.98 in 10.0 mi WSW 15.0 mph - N/A   Clear
12:56 PM 86.9 °F 87.2 °F 61.9 °F 43% 29.96 in 10.0 mi SW 13.8 mph - N/A   Clear
1:56 PM 86.9 °F 86.5 °F 59.9 °F 40% 29.94 in 10.0 mi WSW 17.3 mph - N/A   Clear
2:56 PM 86.0 °F 86.1 °F 61.0 °F 43% 29.93 in 10.0 mi SW 11.5 mph - N/A   Clear
3:56 PM 86.0 °F 86.1 °F 61.0 °F 43% 29.93 in 10.0 mi WSW 10.4 mph - N/A   Clear
4:56 PM 86.0 °F 86.8 °F 63.0 °F 46% 29.92 in 10.0 mi SW 8.1 mph - N/A   Clear
5:56 PM 84.9 °F 86.1 °F 63.9 °F 49% 29.93 in 10.0 mi SW 6.9 mph - N/A   Clear
6:56 PM 79.9 °F - 66.9 °F 64% 29.93 in 10.0 mi SSE 4.6 mph - 0.00 in Rain Light Rain
7:56 PM 75.9 °F - 64.9 °F 69% 29.93 in 10.0 mi South 8.1 mph - 0.00 in   Clear
8:56 PM 73.9 °F - 65.8 °F 76% 29.92 in 10.0 mi South 6.9 mph - N/A   Clear
9:56 PM 72.0 °F - 65.8 °F 81% 29.92 in 10.0 mi SSW 5.8 mph - N/A   Clear
10:56 PM 72.0 °F - 65.8 °F 81% 29.91 in 10.0 mi SSW 5.8 mph - N/A   Clear
11:56 PM 70.9 °F - 65.8 °F 84% 29.91 in 10.0 mi South 6.9 mph - N/A   Clear